Weather reports worldwide

Advertisment
Bologna/Borgo Panigale, Italy (16140): temperature & dewpoint: 14.06.2019 14:00:00 - 20.06.2019 14:00:00 (CEST)Bologna/Borgo Panigale, Italy (16140): wind speed: 14.06.2019 14:00:00 - 20.06.2019 14:00:00 (CEST)Bologna/Borgo Panigale, Italy (16140): wind direction: 14.06.2019 14:00:00 - 20.06.2019 14:00:00 (CEST)Bologna/Borgo Panigale, Italy (16140): reduced air pressure: 14.06.2019 14:00:00 - 20.06.2019 14:00:00 (CEST)Bologna/Borgo Panigale, Italy (16140): visibility: 14.06.2019 14:00:00 - 20.06.2019 14:00:00 (CEST)Bologna/Borgo Panigale, Italy (16140): precipitation: 14.06.2019 14:00:00 - 20.06.2019 14:00:00 (CEST)
Date & Time tt [°C] td [°C] ff [km/h] ff [kn] dd ppp [hPa] vv [km] rr [mm]
20.06.2019 14:00:00 31,8 10,5 5 3 - 1011,8 10 -
20.06.2019 13:00:00 31,0 11,0 8 4 - - 10 -
20.06.2019 12:00:00 30,0 11,0 5 3 - - 10 -
20.06.2019 11:00:00 28,5 10,5 8 4 NW 1012,3 10 0,0
20.06.2019 10:00:00 27,0 9,0 5 3 - - 10 -
20.06.2019 09:00:00 25,0 12,0 11 6 S - 10 -
20.06.2019 08:00:00 22,7 11,1 13 7 SSW 1012,4 10 -
20.06.2019 07:00:00 20,0 11,0 11 6 SSW - 10 -
20.06.2019 06:00:00 19,0 11,0 8 4 SW - 10 -
20.06.2019 05:00:00 18,5 12,0 5 3 WSW 1012,2 10 0,0
20.06.2019 04:00:00 20,0 11,0 8 4 S - 10 -
20.06.2019 03:00:00 21,0 13,0 5 3 NW - 10 -
20.06.2019 02:00:00 22,6 10,8 5 3 SSW 1011,8 10 -
20.06.2019 01:00:00 24,0 11,0 11 6 SSW - 10 -
20.06.2019 00:00:00 25,0 12,0 15 8 S - 10 -
19.06.2019 23:00:00 26,0 12,9 13 7 S 1011,3 10 0,0
19.06.2019 22:00:00 27,0 15,0 15 8 S - 10 -
19.06.2019 21:00:00 29,0 16,0 15 8 S - 10 -
19.06.2019 20:00:00 29,9 15,0 18 10 S 1010,4 10 -
19.06.2019 19:00:00 32,0 16,0 13 7 SSE - 10 -
19.06.2019 18:00:00 32,0 16,0 5 3 - - 10 -
19.06.2019 17:00:00 32,1 15,8 5 3 - 1010,8 10 0,0
19.06.2019 16:00:00 32,0 17,0 9 5 W - 10 -
19.06.2019 15:00:00 31,0 17,0 9 5 - - 10 -
19.06.2019 14:00:00 30,9 16,5 8 4 WNW 1012,4 10 -
19.06.2019 13:00:00 30,0 16,0 9 5 - - 10 -
19.06.2019 12:00:00 29,0 17,0 11 6 WNW - 10 -
19.06.2019 11:00:00 27,6 16,8 11 6 WNW 1013,2 10 0,0
19.06.2019 10:00:00 27,0 16,0 11 6 W - 10 -
19.06.2019 09:00:00 25,0 16,0 5 3 SSW - 10 -
19.06.2019 08:00:00 23,5 17,0 5 3 SSW 1013,3 10 -
19.06.2019 07:00:00 21,0 16,0 9 5 SSW - 10 -
19.06.2019 06:00:00 21,0 16,0 8 4 SSE - 10 -
19.06.2019 05:00:00 20,5 16,3 8 4 S 1012,9 10 0,0
19.06.2019 04:00:00 21,0 17,0 13 7 SSW - 10 -
19.06.2019 03:00:00 22,0 17,0 15 8 SSW - 10 -
19.06.2019 02:00:00 22,5 17,2 9 5 SSW 1013,3 10 -
19.06.2019 01:00:00 24,0 17,0 9 5 S - 10 -
19.06.2019 00:00:00 24,0 18,0 5 3 SE - 10 -
18.06.2019 23:00:00 25,1 18,2 9 5 SSE 1013,5 10 0,0
18.06.2019 22:00:00 25,0 18,0 15 8 ESE - 10 -
18.06.2019 21:00:00 28,0 16,0 11 6 E - 10 -
18.06.2019 20:00:00 28,4 16,6 8 4 E 1013,0 10 -
18.06.2019 19:00:00 30,0 16,0 9 5 E - 10 -
18.06.2019 18:00:00 31,0 17,0 11 6 E - 10 -
18.06.2019 17:00:00 30,6 15,8 8 4 NE 1013,0 10 0,0
18.06.2019 16:00:00 31,0 16,0 9 5 NE - 10 -
18.06.2019 15:00:00 29,0 15,0 8 4 NNW - 10 -
18.06.2019 14:00:00 30,0 16,0 4 2 - 1014,7 10 -
18.06.2019 13:00:00 29,0 15,0 9 5 NE - 10 -
18.06.2019 12:00:00 28,0 16,0 8 4 - - 10 -
18.06.2019 11:00:00 27,1 15,7 2 1 - 1015,6 10 0,0
18.06.2019 10:00:00 26,0 17,0 2 1 - - 10 -
18.06.2019 09:00:00 23,0 16,0 4 2 - - 10 -
18.06.2019 08:00:00 21,2 15,6 8 4 SSW 1016,0 10 -
18.06.2019 07:00:00 19,0 15,0 9 5 SSW - 10 -
18.06.2019 06:00:00 18,0 15,0 11 6 SSW - 10 -
18.06.2019 05:00:00 18,5 15,1 13 7 SSW 1015,3 10 0,0
18.06.2019 04:00:00 19,0 16,0 11 6 SSW - 10 -
18.06.2019 03:00:00 20,0 16,0 8 4 SSW - 10 -
18.06.2019 02:00:00 20,2 16,4 8 4 SSW 1015,6 10 -
18.06.2019 01:00:00 20,0 17,0 2 1 - - 10 -
18.06.2019 00:00:00 22,0 16,0 2 1 - - 10 -
17.06.2019 23:00:00 22,7 16,4 5 3 S 1015,0 10 0,0
17.06.2019 22:00:00 24,0 16,0 8 4 SSE - 10 -
17.06.2019 21:00:00 26,0 16,0 13 7 ESE - 10 -
17.06.2019 20:00:00 27,7 16,7 15 8 E 1013,7 10 -
17.06.2019 19:00:00 29,0 16,0 13 7 E - 10 -
17.06.2019 18:00:00 30,0 16,0 8 4 - - 10 -
17.06.2019 17:00:00 29,7 17,2 13 7 ENE 1014,0 10 0,0
17.06.2019 16:00:00 29,0 16,0 8 4 - - 10 -
17.06.2019 15:00:00 29,0 17,0 13 7 E - 10 -
17.06.2019 14:00:00 28,7 17,1 9 5 NE 1015,4 10 -
17.06.2019 13:00:00 28,0 17,0 11 6 E - 10 -
17.06.2019 12:00:00 28,0 16,0 11 6 ESE - 10 -
17.06.2019 11:00:00 26,7 16,7 5 3 - 1016,2 10 0,0
17.06.2019 10:00:00 25,0 17,0 5 3 W - 10 -
17.06.2019 09:00:00 24,0 16,0 8 4 WNW - 10 -
17.06.2019 08:00:00 21,6 15,6 9 5 WSW 1015,5 20 -
17.06.2019 07:00:00 20,0 14,0 11 6 WSW - 10 -
17.06.2019 06:00:00 19,0 16,0 13 7 SW - 10 -
17.06.2019 05:00:00 19,1 15,1 5 3 W 1014,1 10 0,0
17.06.2019 04:00:00 21,0 16,0 13 7 SSW - 10 -
17.06.2019 03:00:00 21,0 16,0 11 6 SSW - 10 -
17.06.2019 02:00:00 22,1 16,3 15 8 SSW 1013,8 10 -
17.06.2019 01:00:00 23,0 17,0 16 9 SSW - 10 -
17.06.2019 00:00:00 24,0 17,0 16 9 SSW - 10 -
16.06.2019 23:00:00 24,0 17,0 11 6 S 1013,4 10 0,0
16.06.2019 22:00:00 25,0 15,0 5 3 SW - 10 -
16.06.2019 21:00:00 28,0 15,0 4 2 NW - 10 -
16.06.2019 20:00:00 29,1 14,2 8 4 NW 1012,2 10 -
16.06.2019 19:00:00 30,0 17,0 5 3 NW - 10 -
16.06.2019 18:00:00 31,0 15,0 5 3 - - 10 -
16.06.2019 17:00:00 30,3 14,2 9 5 WSW 1012,7 10 0,0
16.06.2019 16:00:00 30,0 16,0 11 6 W - 10 -
16.06.2019 15:00:00 30,0 16,0 11 6 NW - 10 -
16.06.2019 14:00:00 28,9 16,1 11 6 NW 1013,7 10 -
16.06.2019 13:00:00 28,0 16,0 11 6 WNW - 10 -
16.06.2019 12:00:00 27,0 16,0 13 7 NNW - 10 -
16.06.2019 11:00:00 25,9 16,2 13 7 WNW 1014,5 10 0,0
16.06.2019 10:00:00 24,0 14,0 9 5 WNW - 10 -
16.06.2019 09:00:00 23,0 14,0 9 5 W - 10 -
16.06.2019 08:00:00 22,3 14,6 8 4 SSW 1014,1 10 -
16.06.2019 07:00:00 19,0 15,0 9 5 SSW - 10 -
16.06.2019 06:00:00 19,0 15,0 13 7 SSW - 10 -
16.06.2019 05:00:00 18,9 14,9 13 7 SSW 1013,6 10 0,0
16.06.2019 04:00:00 20,0 15,0 9 5 SSW - 10 -
16.06.2019 03:00:00 21,0 16,0 11 6 SSW - 10 -
16.06.2019 02:00:00 21,1 15,9 9 5 SSW 1013,6 10 -
16.06.2019 01:00:00 22,0 17,0 9 5 S - 10 -
16.06.2019 00:00:00 24,0 17,0 13 7 SSW - 10 -
15.06.2019 23:00:00 24,3 17,6 13 7 SSW 1013,1 10 0,0
15.06.2019 22:00:00 26,0 18,0 18 10 S - 10 -
15.06.2019 21:00:00 27,0 18,0 16 9 S - 10 -
15.06.2019 20:00:00 28,1 18,8 15 8 S 1011,8 10 -
15.06.2019 19:00:00 30,0 19,0 15 8 S - 10 -
15.06.2019 18:00:00 31,0 20,0 9 5 WSW - 10 -
15.06.2019 17:00:00 30,7 18,7 9 5 W 1012,4 10 0,0
15.06.2019 16:00:00 30,0 19,0 9 5 - - 10 -
15.06.2019 15:00:00 30,0 19,0 8 4 NW - 10 -
15.06.2019 14:00:00 28,9 18,1 11 6 W 1013,7 10 -
15.06.2019 13:00:00 28,0 18,0 16 9 W - 10 -
15.06.2019 12:00:00 28,0 18,0 15 8 W - 10 -
15.06.2019 11:00:00 26,8 18,8 13 7 W 1014,2 10 0,0
15.06.2019 10:00:00 26,0 19,0 18 10 W - 10 -
15.06.2019 09:00:00 25,0 20,0 8 4 WNW - 10 -
15.06.2019 08:00:00 23,3 19,4 11 6 W 1013,5 8 -
15.06.2019 07:00:00 22,0 19,0 8 4 W - 7 -
15.06.2019 06:00:00 21,0 19,0 13 7 SW - 8 -
15.06.2019 05:00:00 20,2 18,6 8 4 WSW 1013,2 9 0,0
15.06.2019 04:00:00 22,0 19,0 5 3 SW - 10 -
15.06.2019 03:00:00 22,0 19,0 18 10 ESE - 10 -
15.06.2019 02:00:00 22,2 19,2 13 7 ESE 1013,2 10 -
15.06.2019 01:00:00 23,0 19,0 13 7 E - 10 -
15.06.2019 00:00:00 24,0 20,0 11 6 ENE - 10 -
14.06.2019 23:00:00 23,6 19,5 13 7 E 1014,3 10 0,0
14.06.2019 22:00:00 25,0 20,0 9 5 E - 10 -
14.06.2019 21:00:00 25,0 20,0 8 4 E - 10 -
14.06.2019 20:00:00 26,3 18,4 18 10 E 1013,9 10 -
14.06.2019 19:00:00 27,0 20,0 21 11 E - 10 -
14.06.2019 18:00:00 27,0 21,0 22 12 E - 10 -
14.06.2019 17:00:00 28,6 20,3 18 10 E 1015,0 10 0,0
14.06.2019 16:00:00 30,0 18,0 18 10 E - 10 -
14.06.2019 15:00:00 30,0 18,0 21 11 E - 10 -
14.06.2019 14:00:00 29,6 17,2 15 8 E 1017,1 10 -

tt = temperature
td = dewpoint
ff = wind speed
dd = wind direction
ppp = reduced air pressure
vv = visibility
rr = precipitation

Next stations